"Pseudo-MPEC" for X74279

Created 2021 Sep 20 17:07:20 UT using Find_Orb

Click here for an explanation of pseudo-MPECs

 
 Astrometry: 
     X74279   C2021 09 11k4tQvw!2$fAstrometryUM=,46A(YsT8Am\Y%redacted;_clickD29
     X74279   C2021 09 11LKtpRW(VC^eJ#(WkRNQ%\CFOZYT?,Ym`[=8myn6^3a;r,4J4hereD29
     X74279   C2021 09 11@PpcPEC0T=p300INIMq,e+m!?g5forjU/tLsJKp4explanation%D29

Station data:
(D29) Purple Mountain Observatory, XuYi Station  (N32.734366 E118.463900)
   China.  Observers H. B. Zhao, B. Li, G. Zhaori, R. Q. Hong, L. F. Hu.
   Measurers H. B. Zhao, B. Li. H. Lu, G. Zhaori. 1.04-m f/1.8 Schmidt + CCD.

Orbital elements:  X74279
   Perihelion 2021 Aug 8.920251 +/- 51.9984 TT = 22:05:09 (JD 2459435.420251)
Epoch 2021 Sep 12.0 TT = JDT 2459469.5   Earth MOID: 0.4928   Ju: 0.7479
M   6.21814287 +/- 32.421337        (J2000 ecliptic)          AutoNEOCP
n   0.18245859 +/- 0.286709         Peri.  355.63582 +/- 81.296451
a   3.07864660 +/- 3.22506          Node   344.65183 +/- 67.698430
e   0.5123696 +/- 0.260137          Incl.   12.79453 +/- 9.1124632
P   5.40                   H 20.5   G  0.15   U 11.9  SR
q 1.50124136 +/- 0.602408    Q 4.65605184 +/- 45.368
From 3 observations 2021 Sept. 11 (40.7 min); mean residual 0".25
Residuals in arcseconds: 
210911 D29  .14+  .20+    210911 D29  .28-  .41-    210911 D29  .14+  .20+    

Ephemerides (geocentric):
Date (UTC) HH   RA              Dec         delta   r     elong  mag " sig PA
---- -- -- --  -------------   -----------  ------ ------ -----  --- ---- ---
2021 09 20 17  01 07 26.752   +21 12 35.01  .60442 1.5608 151.1 21.4  53d 169
2021 09 20 18  01 07 24.762   +21 13 18.92  .60444 1.5609 151.1 21.4  54d 169
2021 09 20 19  01 07 22.769   +21 14 02.78  .60446 1.5611 151.2 21.4  54d 169
2021 09 20 20  01 07 20.772   +21 14 46.59  .60448 1.5612 151.2 21.4  54d 169
2021 09 20 21  01 07 18.772   +21 15 30.35  .60450 1.5613 151.2 21.4  54d 169
2021 09 20 22  01 07 16.770   +21 16 14.06  .60452 1.5614 151.3 21.4  54d 169
2021 09 20 23  01 07 14.764   +21 16 57.72  .60454 1.5615 151.3 21.4  54d 169
2021 09 21 00  01 07 12.755   +21 17 41.33  .60456 1.5616 151.3 21.4  54d 169
2021 09 21 01  01 07 10.742   +21 18 24.89  .60458 1.5617 151.3 21.4  54d 169
2021 09 21 02  01 07 08.727   +21 19 08.40  .60461 1.5619 151.4 21.4  54d 169
2021 09 21 03  01 07 06.709   +21 19 51.86  .60463 1.5620 151.4 21.4  54d 168
2021 09 21 04  01 07 04.687   +21 20 35.28  .60465 1.5621 151.4 21.4  54d 168
2021 09 21 05  01 07 02.663   +21 21 18.64  .60467 1.5622 151.5 21.4  55d 168
2021 09 21 06  01 07 00.635   +21 22 01.95  .60469 1.5623 151.5 21.4  55d 168
2021 09 21 07  01 06 58.605   +21 22 45.21  .60472 1.5624 151.5 21.4  55d 168
2021 09 21 08  01 06 56.571   +21 23 28.43  .60474 1.5625 151.6 21.4  55d 168
2021 09 21 09  01 06 54.534   +21 24 11.59  .60476 1.5626 151.6 21.4  55d 168
2021 09 21 10  01 06 52.495   +21 24 54.70  .60479 1.5628 151.6 21.4  55d 168
2021 09 21 11  01 06 50.452   +21 25 37.76  .60481 1.5629 151.7 21.4  55d 168
2021 09 21 12  01 06 48.406   +21 26 20.77  .60483 1.5630 151.7 21.4  55d 168
2021 09 21 13  01 06 46.357   +21 27 03.74  .60486 1.5631 151.7 21.4  55d 168
2021 09 21 14  01 06 44.306   +21 27 46.65  .60488 1.5632 151.8 21.4  55d 168
2021 09 21 15  01 06 42.251   +21 28 29.51  .60491 1.5633 151.8 21.3  55d 168
2021 09 21 16  01 06 40.193   +21 29 12.32  .60493 1.5634 151.8 21.3  55d 168
2021 09 21 17  01 06 38.133   +21 29 55.08  .60496 1.5636 151.9 21.3  55d 168
2021 09 21 18  01 06 36.069   +21 30 37.79  .60499 1.5637 151.9 21.3  55d 168
2021 09 21 19  01 06 34.002   +21 31 20.44  .60501 1.5638 151.9 21.3  55d 168
2021 09 21 20  01 06 31.933   +21 32 03.05  .60504 1.5639 152.0 21.3  55d 168
2021 09 21 21  01 06 29.860   +21 32 45.61  .60506 1.5640 152.0 21.3  55d 168
2021 09 21 22  01 06 27.785   +21 33 28.11  .60509 1.5641 152.0 21.3  55d 168
2021 09 21 23  01 06 25.706   +21 34 10.57  .60512 1.5643 152.1 21.3  55d 169
2021 09 22 00  01 06 23.625   +21 34 52.97  .60515 1.5644 152.1 21.3  55d 169
2021 09 22 01  01 06 21.541   +21 35 35.33  .60517 1.5645 152.1 21.3  56d 170
2021 09 22 02  01 06 19.454   +21 36 17.63  .60520 1.5646 152.1 21.3  57d 171
2021 09 22 03  01 06 17.364   +21 36 59.88  .60523 1.5647 152.2 21.3  57d 171
2021 09 22 04  01 06 15.271   +21 37 42.08  .60526 1.5648 152.2 21.3  57d 171
2021 09 22 05  01 06 13.175   +21 38 24.23  .60529 1.5649 152.2 21.3  57d 171
2021 09 22 06  01 06 11.076   +21 39 06.33  .60532 1.5651 152.3 21.3  58d 171
2021 09 22 07  01 06 08.975   +21 39 48.38  .60535 1.5652 152.3 21.3  58d 171
2021 09 22 08  01 06 06.870   +21 40 30.37  .60538 1.5653 152.3 21.3  58d 171
2021 09 22 09  01 06 04.763   +21 41 12.32  .60541 1.5654 152.4 21.3  58d 171
2021 09 22 10  01 06 02.653   +21 41 54.21  .60544 1.5655 152.4 21.3  59d 171
2021 09 22 11  01 06 00.540   +21 42 36.05  .60547 1.5656 152.4 21.3  59d 171
2021 09 22 12  01 05 58.424   +21 43 17.85  .60550 1.5658 152.5 21.3  59d 171
2021 09 22 13  01 05 56.306   +21 43 59.58  .60553 1.5659 152.5 21.3  59d 171
2021 09 22 14  01 05 54.184   +21 44 41.27  .60556 1.5660 152.5 21.3  59d 171
2021 09 22 15  01 05 52.060   +21 45 22.91  .60559 1.5661 152.6 21.3  59d 171
2021 09 22 16  01 05 49.933   +21 46 04.49  .60563 1.5662 152.6 21.3  60d 171